Flag for Germany Weather past 2 weeks in Giessen, Hesse, Germany

Now
74 °F

Sunny.


Feels Like: 76 °F
Forecast: 37 / 56 °F
Wind: 3 mph from West

Location: Giessen

Current Time: Apr 21, 2015 at 4:45:35 PM

Latest Report: Apr 21, 2015 at 4:00 PM


Visibility: 41 mi

Pressure: 30.31 "Hg

Humidity: 27%

Dew point: 38 °F

Location of GiessenLocation

Historic Weather in Giessen — Graph

°F

Giessen temperature yesterday

Maximum temperature yesterday: 65 °F (at 4:00 PM)
Minimum temperature yesterday: 36 °F (at 7:00 AM)
Average temperature yesterday: 52 °F

Past Weeks' High & Low Weather Summary

 TemperatureHumidityPressure
High74 °F (Apr 15, 5:00 PM)98% (Apr 9, 8:00 AM)30.67 "Hg (Apr 9, 8:00 AM)
Low27 °F (Apr 7, 7:00 AM)25% (Apr 21, 3:00 PM)29.86 "Hg (Apr 16, 6:00 PM)
Average50 °F62%30.27 "Hg
* Reported Apr 6 3:00 PM — Apr 21 3:00 PM, Giessen, Weather by CustomWeather, © 2015

Note: Actual official high and low records may vary slightly from our data, if they occured in-between our weather recording intervals... More about our weather records

Advertising

Giessen weather history for previous 24 hours

 ConditionsComfort  
Time TempWeatherWind HumidityBarometerVisibility
3:00 PM
Tue, Apr 21
71 °FSunny.5 mph25%30.34 "Hg34 mi
2:00 PM69 °FSunny.2 mph28%30.37 "Hg43 mi
1:00 PM65 °FPassing clouds.2 mph28%30.39 "Hg40 mi
12:00 PM62 °FOvercast.3 mph31%30.41 "Hg43 mi
11:00 AM60 °FOvercast.1 mph49%30.41 "Hg25 mi
10:00 AM54 °FScattered clouds.1 mph65%30.43 "Hg18 mi
9:00 AM47 °FScattered clouds.1 mph74%30.43 "Hg17 mi
8:00 AM44 °FPassing clouds.1 mph81%30.43 "Hg17 mi
7:00 AM40 °FScattered clouds.No wind85%30.42 "Hg14 mi
6:00 AM41 °FPassing clouds.1 mph84%30.41 "Hg19 mi
5:00 AM43 °FOvercast.No wind79%30.40 "Hg19 mi
4:00 AM44 °FPassing clouds.2 mph76%30.40 "Hg19 mi
3:00 AM46 °FPassing clouds.1 mph70%30.39 "Hg19 mi
2:00 AM45 °FOvercast.1 mph73%30.38 "Hg22 mi
1:00 AM47 °FClear.1 mph71%30.37 "Hg22 mi
12:00 AM53 °FClear.1 mph56%30.36 "Hg22 mi
11:00 PM
Mon, Apr 20
53 °FOvercast.2 mph53%30.35 "Hg28 mi
10:00 PM55 °FPassing clouds.2 mph50%30.34 "Hg31 mi
9:00 PM58 °FPassing clouds.5 mph42%30.32 "Hg34 mi
8:00 PM62 °FPartly sunny.5 mph35%30.29 "Hg34 mi
7:00 PM64 °FPassing clouds.6 mph33%30.28 "Hg34 mi
6:00 PM65 °FSunny.7 mph30%30.27 "Hg40 mi
5:00 PM65 °FSunny.7 mph32%30.27 "Hg28 mi
4:00 PM65 °FSunny.5 mph32%30.27 "Hg31 mi
Weather by CustomWeather, © 2015

See weather overviewHow to use our weather pages